Wind_Speed
42 43 43 44 44 44 44 44 44 43 43 43 43 43 43 43 43 43 43 43 44 44 44 43 42 42 41 41 40 40 39 37 37 37 36 35 35 36 36 36 35 36 36
44 45 45 46 46 46 46 46 45 45 45 45 45 45 45 45 45 44 44 44 44 44 45 44 43 43 42 41 40 40 39 38 38 38 37 36 36 36 37 37 37 37 37
46 46 46 47 47 47 47 47 46 46 47 47 47 47 47 47 46 46 45 45 45 44 45 45 45 44 43 42 41 40 40 40 40 40 40 39 37 37 37 38 38 38 38
47 47 48 48 49 49 48 48 48 48 48 48 48 48 48 48 48 47 47 46 46 46 46 47 46 45 44 43 42 42 42 42 42 42 42 41 39 39 38 39 40 40 40
45 47 47 48 49 49 49 49 49 49 49 49 48 48 48 49 49 48 48 48 48 48 47 47 47 46 46 45 45 44 44 44 44 43 43 42 41 39 39 39 40 41 41
43 44 45 46 48 48 49 49 49 50 50 49 49 49 49 49 49 48 48 48 48 49 48 48 48 47 47 46 47 46 46 46 45 45 44 43 42 41 41 41 41 41 42
42 43 44 45 46 47 48 49 49 49 50 50 50 50 50 50 50 49 49 49 49 49 49 49 48 48 47 48 48 47 47 47 46 46 46 44 44 43 43 43 43 42 43
41 43 43 44 45 46 47 48 49 49 50 50 51 51 52 52 51 51 51 50 50 51 51 50 49 49 49 49 49 49 48 48 47 47 47 46 45 44 45 44 44 44 44
41 42 43 43 44 45 46 47 49 50 50 51 51 52 52 52 52 51 51 51 51 51 52 51 50 50 50 49 49 50 49 49 49 48 48 47 47 47 47 45 45 46 46
41 42 42 43 44 45 47 47 48 49 50 51 51 52 53 53 53 52 52 52 52 52 52 52 52 51 51 50 50 50 50 49 49 49 50 50 49 48 48 47 47 47 47
41 41 42 43 44 45 46 46 47 48 49 50 51 52 53 53 54 53 53 53 53 52 52 53 52 52 52 51 51 51 51 50 50 51 51 50 50 49 49 48 48 47 48
40 41 42 43 43 44 45 45 46 47 48 49 50 51 52 53 53 53 53 54 54 54 54 54 53 53 53 52 52 52 52 51 51 51 51 51 51 51 51 50 49 49 48
39 40 41 42 42 43 43 44 45 46 47 47 48 49 51 52 52 53 53 54 54 54 54 55 54 54 53 53 52 52 51 51 51 51 51 51 52 52 51 51 50 49 49
39 39 39 40 41 42 43 43 44 45 45 46 47 48 49 50 51 52 51 53 54 54 54 54 54 53 53 53 52 51 51 51 51 51 51 51 52 52 52 51 51 51 51
37 37 38 39 40 41 41 42 43 43 44 44 45 46 47 48 49 49 50 51 53 53 53 53 53 53 52 52 51 51 51 50 50 50 50 50 51 51 52 52 51 51 51
37 37 37 38 39 39 40 40 41 41 42 42 43 44 45 46 47 47 48 49 51 52 52 53 53 53 53 52 51 50 50 50 50 50 50 50 51 51 53 53 52 52 51
35 35 36 37 37 38 39 39 39 39 40 40 41 43 44 44 44 45 45 47 49 50 50 51 53 53 52 51 51 50 50 50 50 50 50 51 51 52 53 53 53 53 52
35 36 37 37 37 38 38 38 38 39 39 40 40 42 43 43 43 43 44 45 47 48 49 50 51 51 51 51 51 50 51 51 50 50 50 50 51 52 52 53 53 53 53
36 36 37 37 37 36 36 36 37 37 38 39 40 41 41 41 42 42 42 44 45 47 48 49 51 51 51 51 51 51 51 51 51 51 51 50 51 51 52 52 53 52 52
35 36 36 36 36 36 36 36 36 36 36 36 37 38 38 38 39 40 40 41 43 44 46 47 49 49 51 51 51 51 51 51 51 51 51 50 51 51 52 52 53 52 52
34 35 35 36 36 35 35 35 35 36 36 36 36 36 37 37 37 37 37 38 40 41 42 45 46 47 47 49 50 50 50 50 50 50 50 50 50 50 51 51 52 52 51
34 35 35 35 35 34 34 34 34 34 34 34 34 35 36 36 36 36 36 37 37 38 39 41 43 45 45 46 47 47 48 49 49 49 48 47 48 49 49 50 50 51 51
34 34 34 34 33 33 33 33 33 32 31 32 32 33 34 33 33 34 35 35 36 37 38 39 40 42 43 44 45 46 46 46 47 47 46 46 46 46 47 48 50 51 51
33 33 33 32 32 32 32 32 32 31 30 30 30 31 32 33 33 33 34 34 35 36 36 38 39 40 41 42 43 44 45 45 45 45 44 45 45 45 46 47 48 49 50
31 31 30 30 30 30 30 30 30 30 29 29 30 30 31 31 32 32 33 33 34 34 35 36 38 39 40 41 42 42 43 44 45 44 44 44 44 45 46 46 47 48 49
30 30 29 29 29 28 28 28 28 29 28 28 29 30 31 31 32 32 33 34 35 35 35 35 36 37 39 40 41 42 42 42 43 43 42 43 43 44 45 45 46 46 47
Wind_Direction
262 261 261 261 261 262 261 261 261 262 261 260 260 259 259 258 258 259 259 259 258 257 258 258 259 259 259 258 258 258 257 255 254 254 254 253 252 249 247 247 248 248 247
261 261 260 260 261 261 262 261 261 262 261 260 260 259 258 258 258 259 259 260 260 259 259 259 259 259 259 258 258 257 256 255 254 253 253 253 253 251 249 248 247 247 247
262 261 261 261 261 261 261 261 261 261 260 260 260 259 258 257 258 258 259 259 259 259 259 258 257 258 258 257 256 256 256 255 254 254 253 252 253 250 250 249 247 247 247
262 262 261 261 262 262 262 261 261 261 260 260 260 260 258 257 257 257 258 259 259 259 258 257 256 256 256 256 255 256 256 255 254 254 253 252 252 250 249 249 248 247 247
263 263 262 262 262 262 262 261 261 261 260 259 260 259 258 257 257 257 258 259 259 258 258 256 256 255 255 255 255 255 256 255 253 254 254 253 253 252 251 248 248 248 248
264 264 263 263 263 262 262 261 261 261 260 259 259 259 258 257 257 257 258 258 258 257 257 255 255 255 255 255 254 255 256 255 254 254 254 253 253 254 254 251 248 248 249
266 265 265 264 264 263 263 262 261 261 260 258 258 258 257 257 257 257 258 258 257 256 256 255 254 255 256 255 255 254 255 255 254 254 254 253 254 255 255 253 250 250 250
268 268 267 266 266 265 264 263 261 261 260 258 258 258 258 257 257 257 258 257 257 256 255 255 254 254 255 255 255 254 254 254 254 254 253 253 254 255 254 253 252 251 251
269 269 269 268 267 267 266 264 263 261 260 259 258 258 257 257 257 257 257 257 256 255 254 254 254 254 255 255 255 254 254 253 254 254 254 253 255 255 255 254 254 253 252
270 271 270 269 269 268 268 266 264 263 261 260 259 258 258 257 256 257 256 257 256 255 254 253 254 254 255 255 254 254 254 253 254 254 254 254 255 255 255 254 254 254 254
271 271 271 271 271 270 269 267 266 265 263 262 260 259 258 257 257 257 256 256 255 255 253 253 253 254 255 255 254 254 254 254 254 255 254 254 254 254 254 254 254 255 255
274 273 273 273 272 271 270 268 266 266 265 263 262 261 259 258 258 257 256 256 255 254 254 253 253 253 254 254 254 254 254 254 255 254 254 253 253 254 254 254 255 256 256
276 276 276 275 273 272 270 269 267 267 266 265 263 261 260 259 259 258 256 256 255 254 254 253 253 253 253 254 253 254 253 254 254 254 254 253 253 253 253 254 255 255 255
278 278 278 277 275 274 272 270 269 268 267 266 264 262 261 259 258 258 257 256 256 254 254 253 253 252 252 252 252 252 252 253 253 254 254 253 253 253 253 254 254 254 255
280 278 278 277 276 275 273 271 270 269 268 267 266 264 262 259 258 259 257 256 256 254 253 253 252 251 251 251 251 251 252 252 253 254 254 253 252 252 252 253 254 255 255
280 279 279 278 278 276 274 273 272 271 269 268 267 264 263 260 259 259 258 257 256 255 253 252 251 250 250 250 250 251 252 252 252 253 253 253 253 253 253 254 254 255 256
281 280 279 279 278 277 277 275 272 272 271 270 268 266 263 262 260 259 258 257 256 255 253 252 250 249 249 249 250 250 251 251 252 252 252 253 254 254 255 255 255 256 256
281 281 280 280 279 279 278 276 274 273 272 270 268 267 264 262 261 260 258 257 256 254 253 252 251 250 249 249 250 250 251 251 251 252 253 253 254 254 254 255 255 256 256
282 281 281 281 280 280 279 277 275 275 274 271 269 267 265 263 261 260 258 258 257 256 253 252 251 250 249 249 249 250 250 250 251 252 252 253 254 254 255 255 255 255 255
283 282 282 281 281 281 280 279 276 276 275 272 269 266 265 264 263 261 259 259 258 257 254 252 251 250 249 249 249 250 250 250 251 252 252 253 254 254 254 254 255 255 255
284 284 284 283 283 281 280 279 277 276 275 273 269 267 264 264 264 261 260 260 259 258 256 253 250 249 249 249 248 249 251 251 251 251 252 253 254 254 254 254 254 255 256
284 284 285 285 284 281 280 280 277 276 275 272 270 268 264 262 263 261 261 260 259 258 256 253 251 248 249 249 248 249 251 251 252 252 253 253 254 254 254 254 255 256 257
285 285 286 286 285 284 281 280 277 274 273 271 270 269 266 262 263 262 261 261 259 256 255 253 251 249 249 250 249 249 250 252 253 253 253 253 254 254 255 255 256 257 258
287 287 287 286 286 285 283 281 277 273 271 270 269 269 265 263 262 263 263 262 261 257 254 253 251 250 250 250 250 250 250 252 253 253 253 254 254 254 255 255 256 257 258
287 287 287 287 287 287 284 282 277 272 272 270 268 267 265 263 263 262 263 263 262 259 256 255 255 253 251 250 250 251 252 253 254 254 253 253 254 254 254 255 257 258 258
287 288 289 288 287 286 284 281 278 273 271 270 268 267 266 264 264 262 263 263 263 261 259 258 257 255 254 252 251 251 253 254 254 254 254 254 254 255 254 255 256 257 258
Height
5713 5713 5714 5714 5715 5716 5716 5717 5718 5718 5718 5719 5720 5721 5721 5722 5723 5724 5726 5727 5727 5728 5730 5731 5732 5733 5734 5735 5736 5737 5738 5739 5739 5741 5742 5743 5743 5745 5747 5750 5753 5756 5760
5701 5701 5702 5702 5703 5703 5704 5705 5705 5706 5706 5707 5708 5708 5709 5711 5712 5713 5714 5715 5715 5717 5718 5720 5721 5722 5723 5724 5725 5726 5727 5728 5729 5731 5732 5733 5735 5736 5738 5740 5744 5747 5750
5688 5688 5689 5689 5690 5690 5691 5691 5692 5693 5694 5694 5695 5696 5697 5698 5700 5701 5702 5703 5704 5705 5706 5708 5710 5711 5712 5714 5715 5716 5717 5718 5719 5720 5722 5724 5726 5727 5729 5731 5734 5737 5741
5674 5674 5675 5675 5676 5676 5677 5678 5679 5680 5680 5681 5681 5682 5684 5685 5687 5688 5690 5691 5692 5693 5694 5696 5698 5699 5701 5702 5704 5705 5706 5708 5709 5710 5711 5713 5715 5718 5720 5722 5724 5727 5731
5660 5660 5661 5661 5661 5662 5663 5664 5664 5665 5666 5667 5668 5668 5669 5671 5673 5675 5676 5678 5679 5680 5681 5683 5685 5687 5689 5690 5692 5694 5695 5696 5698 5699 5700 5702 5705 5707 5710 5713 5716 5718 5721
5647 5647 5647 5647 5647 5648 5648 5649 5650 5651 5651 5653 5654 5655 5656 5658 5660 5661 5663 5664 5665 5667 5668 5670 5672 5674 5676 5678 5680 5682 5683 5685 5686 5688 5689 5691 5694 5696 5698 5702 5706 5708 5711
5634 5634 5634 5634 5634 5633 5634 5634 5635 5636 5637 5638 5639 5640 5642 5644 5646 5648 5650 5651 5652 5654 5656 5658 5659 5661 5663 5665 5667 5669 5671 5672 5674 5676 5678 5680 5683 5685 5687 5690 5694 5697 5700
5622 5621 5621 5621 5620 5620 5620 5620 5620 5621 5622 5623 5625 5626 5627 5629 5631 5633 5635 5637 5639 5640 5642 5644 5646 5648 5650 5652 5654 5656 5658 5660 5662 5664 5667 5669 5671 5673 5675 5678 5682 5685 5689
5610 5609 5608 5607 5607 5606 5606 5606 5606 5606 5607 5608 5610 5611 5612 5614 5616 5618 5620 5622 5624 5626 5628 5630 5633 5635 5637 5639 5641 5643 5645 5647 5649 5652 5654 5657 5659 5662 5664 5667 5669 5673 5677
5597 5596 5595 5594 5593 5592 5592 5591 5591 5591 5592 5593 5594 5596 5597 5599 5601 5603 5605 5607 5609 5611 5614 5616 5619 5621 5623 5625 5628 5630 5632 5635 5637 5639 5642 5644 5647 5649 5651 5654 5656 5659 5663
5585 5583 5582 5581 5579 5578 5577 5577 5576 5576 5576 5577 5578 5580 5582 5583 5585 5587 5590 5592 5594 5596 5599 5602 5604 5607 5609 5612 5614 5617 5619 5622 5624 5626 5629 5632 5634 5636 5639 5641 5644 5647 5649
5572 5570 5569 5567 5565 5564 5563 5562 5562 5562 5562 5562 5563 5564 5566 5567 5569 5571 5574 5576 5578 5581 5584 5586 5589 5592 5595 5597 5600 5603 5605 5608 5611 5613 5615 5618 5620 5623 5626 5628 5631 5633 5636
5559 5558 5556 5554 5552 5550 5549 5548 5548 5547 5547 5547 5548 5549 5550 5552 5553 5555 5557 5560 5562 5565 5568 5571 5574 5577 5580 5583 5586 5588 5591 5594 5597 5599 5602 5604 5607 5609 5612 5614 5617 5619 5622
5548 5545 5543 5541 5539 5537 5536 5535 5535 5534 5533 5533 5533 5534 5535 5536 5538 5539 5542 5544 5546 5549 5552 5555 5559 5562 5566 5568 5571 5574 5577 5580 5582 5585 5588 5590 5593 5595 5598 5600 5603 5605 5608
5536 5534 5531 5529 5527 5525 5524 5522 5522 5521 5520 5520 5520 5520 5521 5522 5523 5525 5527 5529 5531 5534 5537 5540 5543 5546 5550 5554 5557 5560 5563 5566 5568 5571 5574 5576 5578 5581 5583 5586 5589 5591 5594
5525 5522 5520 5518 5515 5513 5512 5510 5509 5508 5508 5507 5507 5507 5507 5508 5509 5510 5512 5514 5516 5518 5521 5525 5528 5531 5535 5539 5543 5546 5549 5552 5554 5557 5560 5562 5564 5567 5569 5572 5575 5577 5580
5514 5511 5509 5506 5504 5502 5500 5498 5497 5496 5495 5495 5495 5495 5494 5495 5496 5497 5498 5500 5501 5504 5506 5509 5512 5516 5520 5524 5528 5531 5534 5537 5540 5543 5546 5548 5551 5553 5556 5558 5561 5563 5565
5503 5501 5498 5495 5493 5490 5488 5487 5485 5484 5483 5483 5482 5481 5481 5482 5483 5484 5485 5486 5488 5490 5492 5495 5498 5502 5506 5510 5513 5517 5519 5523 5526 5529 5531 5534 5537 5539 5541 5544 5547 5549 5552
5493 5490 5487 5485 5482 5480 5477 5476 5474 5473 5471 5471 5470 5469 5470 5470 5470 5471 5472 5473 5474 5476 5478 5481 5484 5488 5492 5495 5499 5502 5505 5508 5511 5514 5517 5519 5522 5525 5527 5530 5533 5535 5538
5482 5479 5477 5474 5471 5469 5466 5465 5463 5462 5460 5459 5458 5458 5458 5458 5458 5459 5460 5461 5462 5463 5465 5467 5470 5474 5477 5481 5484 5487 5490 5494 5498 5501 5503 5505 5508 5510 5512 5514 5518 5521 5524
5471 5469 5466 5463 5461 5458 5456 5454 5452 5451 5449 5448 5447 5446 5446 5447 5447 5448 5448 5449 5449 5451 5452 5454 5457 5460 5463 5467 5470 5473 5475 5479 5483 5486 5489 5491 5493 5496 5498 5500 5503 5507 5509
5461 5458 5456 5453 5450 5448 5446 5444 5442 5441 5439 5438 5437 5436 5436 5436 5436 5436 5437 5437 5438 5439 5440 5441 5444 5447 5450 5453 5456 5459 5462 5465 5469 5472 5475 5478 5480 5482 5484 5486 5489 5492 5494
5451 5448 5445 5443 5440 5437 5435 5433 5432 5430 5429 5428 5427 5426 5426 5426 5425 5426 5427 5427 5427 5428 5429 5430 5432 5435 5438 5441 5444 5447 5449 5452 5455 5459 5462 5464 5466 5468 5470 5473 5475 5477 5479
5440 5438 5435 5433 5430 5428 5425 5423 5421 5420 5419 5418 5417 5417 5416 5416 5416 5416 5417 5417 5417 5418 5418 5420 5421 5424 5427 5430 5432 5434 5437 5440 5442 5445 5448 5451 5453 5455 5457 5459 5461 5462 5464
5431 5428 5426 5423 5421 5418 5416 5414 5412 5411 5410 5409 5409 5408 5408 5408 5407 5407 5407 5408 5408 5408 5409 5410 5412 5414 5417 5419 5421 5423 5426 5428 5431 5433 5436 5438 5440 5441 5443 5445 5447 5449 5450
5422 5419 5417 5414 5412 5409 5407 5405 5403 5402 5401 5401 5400 5399 5399 5399 5398 5398 5398 5398 5399 5399 5400 5401 5402 5404 5406 5408 5410 5413 5415 5416 5419 5421 5423 5425 5427 5428 5430 5432 5434 5435 5437